カタログに戻る

STARLINK-34188

運用中通信VLEO
NORAD 64183·PAYLOAD·🇺🇸 United States

打ち上げ May 28, 2025 から Cape Canaveral Space Force Station

Loading…

次のパス (今後24時間)

TLE

最新Source: CelesTrak SupGP

元期: Sep 14, 2026, 22:29 UTC

1 64183C 25113P   26257.93729167  .00046405  00000+0  14927-2 0  2570
2 64183  53.1586 290.7126 0001198  82.4618 122.1357 15.31668882    17

AllMySatでSTARLINK-34188をリアルタイム追跡

Download on the App Store